Litchfield, IL

5:02 AM CDT on July 22, 2017 (GMT -0500)
Litchfield

Weather History for K3LF - December, 2012

Change the Weather History Date:

Thursday, December 27, 2012

  Actual Average (KALN) Record (KALN)
Temperature  
Mean Temperature - -  
Max Temperature - 38 °F 68 °F (2008)
Min Temperature - 22 °F 12 °F (2000)
Moisture  
Dew Point -    
Average Humidity    
Maximum Humidity    
Minimum Humidity    
Precipitation  
Precipitation 0.00 in - - ()
Sea Level Pressure  
Sea Level Pressure 30.14 in    
Wind  
Wind Speed 6 mph (SE)    
Max Wind Speed 12 mph    
Max Gust Speed -    
Visibility 10 miles    
Events      
Averages and records for this station are not official NWS values.
T = Trace of Precipitation, MM = Missing Value Source: NWS Daily Summary

Daily Weather History Graph

Daily Weather History Graph

Search for Another Location

Airport or City:

Trip Planner

Search our weather history database for the weather conditions in past years. The results will help you decide how hot, cold, wet, or windy it might be!

Date:

Astronomy

Dec. 27, 2012 Rise Set
Actual Time 7:17 AM CST 4:43 PM CST
Civil Twilight 6:47 AM CST 5:13 PM CST
Nautical Twilight 6:13 AM CST 5:46 PM CST
Astronomical Twilight 5:40 AM CST 6:19 PM CST
Moon 4:26 PM CST (12/27) 6:28 AM CST (12/27)
Length of Visible Light 10h 26m
Length of Day
9h 26m
Full, 100% of the Moon is Illuminated
Dec 27
Full
Dec 28
Full
Jan 4
Last Quarter
Jan 11
New
Jan 18
First Quarter

Hourly Weather History & Observations

Time (CST) Temp. Dew Point Humidity Pressure Visibility Wind Dir Wind Speed Gust Speed Precip Events Conditions
12:15 AM - - N/A% 30.14 in 10.0 mi NW 9.2 mph - N/A   Overcast
12:35 AM - - N/A% 30.14 in 10.0 mi NNW 11.5 mph - N/A   Overcast
12:55 AM - - N/A% 30.14 in 10.0 mi NNW 9.2 mph - N/A   Overcast
1:15 AM - - N/A% 30.13 in 10.0 mi NNW 9.2 mph - N/A   Overcast
1:35 AM - - N/A% 30.15 in 10.0 mi NW 6.9 mph - N/A   Overcast
1:55 AM - - N/A% 30.15 in 10.0 mi NNW 8.1 mph - N/A   Overcast
2:15 AM - - N/A% 30.15 in 10.0 mi North 8.1 mph - N/A   Overcast
2:35 AM - - N/A% 30.14 in 10.0 mi North 8.1 mph - N/A   Overcast
3:15 AM - - N/A% 30.15 in 10.0 mi NW 5.8 mph - N/A   Overcast
3:35 AM - - N/A% 30.16 in 10.0 mi WNW 6.9 mph - N/A   Overcast
3:55 AM - - N/A% 30.16 in 10.0 mi WNW 5.8 mph - N/A   Overcast
4:15 AM - - N/A% 30.16 in 10.0 mi NW 3.5 mph - N/A   Overcast
4:35 AM - - N/A% 30.17 in 10.0 mi WNW 6.9 mph - N/A   Overcast
4:55 AM - - N/A% 30.17 in 10.0 mi WNW 4.6 mph - N/A   Overcast
5:15 AM - - N/A% 30.16 in 10.0 mi NW 4.6 mph - N/A   Overcast
5:35 AM - - N/A% 30.16 in 10.0 mi NNW 5.8 mph - N/A   Overcast
5:55 AM - - N/A% 30.17 in 10.0 mi NW 5.8 mph - N/A   Overcast
6:35 AM - - N/A% 30.18 in 10.0 mi Calm Calm - N/A   Overcast
6:55 AM - - N/A% 30.19 in 10.0 mi West 4.6 mph - N/A   Overcast
7:15 AM - - N/A% 30.19 in 10.0 mi Calm Calm - N/A   Overcast
7:35 AM - - N/A% 30.18 in 10.0 mi WNW 4.6 mph - N/A   Overcast
7:55 AM - - N/A% 30.18 in 10.0 mi NW 3.5 mph - N/A   Overcast
8:15 AM - - N/A% 30.18 in 10.0 mi North 3.5 mph - N/A   Overcast
8:35 AM - - N/A% 30.17 in 10.0 mi NNE 3.5 mph - N/A   Overcast
8:55 AM - - N/A% 30.19 in 10.0 mi Calm Calm - N/A   Overcast
9:15 AM - - N/A% 30.19 in 10.0 mi Calm Calm - N/A   Overcast
9:35 AM - - N/A% 30.20 in 10.0 mi Calm Calm - N/A   Overcast
9:55 AM - - N/A% 30.20 in 10.0 mi Calm Calm - N/A   Overcast
10:15 AM - - N/A% 30.20 in 10.0 mi SE 3.5 mph - N/A   Overcast
10:35 AM - - N/A% 30.20 in 10.0 mi SE 4.6 mph - N/A   Overcast
10:55 AM - - N/A% 30.20 in 10.0 mi Calm Calm - N/A   Overcast
11:15 AM - - N/A% 30.20 in 10.0 mi SSW 3.5 mph - N/A   Overcast
11:35 AM - - N/A% 30.18 in 10.0 mi SSE 3.5 mph - N/A   Overcast
11:55 AM - - N/A% 30.17 in 10.0 mi South 3.5 mph - N/A   Overcast
12:15 PM - - N/A% 30.16 in 10.0 mi SSE 3.5 mph - N/A   Overcast
12:35 PM - - N/A% 30.14 in 10.0 mi SSE 3.5 mph - N/A   Overcast
12:55 PM - - N/A% 30.13 in 10.0 mi ESE 5.8 mph - N/A   Overcast
1:15 PM - - N/A% 30.12 in 10.0 mi ESE 4.6 mph - N/A   Overcast
1:35 PM - - N/A% 30.12 in 10.0 mi Calm Calm - N/A   Overcast
1:55 PM - - N/A% 30.12 in 10.0 mi SSE 3.5 mph - N/A   Overcast
2:15 PM - - N/A% 30.12 in 10.0 mi SSE 4.6 mph - N/A   Overcast
2:35 PM - - N/A% 30.11 in 10.0 mi ESE 6.9 mph - N/A   Mostly Cloudy
2:55 PM - - N/A% 30.12 in 10.0 mi SSE 6.9 mph - N/A   Scattered Clouds
3:15 PM - - N/A% 30.12 in 10.0 mi SSE 4.6 mph - N/A   Scattered Clouds
3:35 PM - - N/A% 30.12 in 10.0 mi SE 5.8 mph - N/A   Scattered Clouds
3:55 PM - - N/A% 30.12 in 10.0 mi SE 5.8 mph - N/A   Scattered Clouds
4:15 PM - - N/A% 30.12 in 10.0 mi SSE 6.9 mph - N/A   Mostly Cloudy
4:35 PM - - N/A% 30.12 in 10.0 mi SSE 6.9 mph - N/A   Overcast
4:55 PM - - N/A% 30.12 in 10.0 mi SE 5.8 mph - N/A   Overcast
5:15 PM - - N/A% 30.12 in 10.0 mi SE 6.9 mph - N/A   Overcast
5:35 PM - - N/A% 30.12 in 10.0 mi SE 8.1 mph - N/A   Overcast
5:55 PM - - N/A% 30.11 in 10.0 mi SE 8.1 mph - N/A   Overcast
6:35 PM - - N/A% 30.10 in 10.0 mi SE 6.9 mph - N/A   Overcast
6:55 PM - - N/A% 30.10 in 10.0 mi SE 8.1 mph - N/A   Overcast
7:55 PM - - N/A% 30.09 in 10.0 mi SE 9.2 mph - N/A   Scattered Clouds
8:15 PM - - N/A% 30.09 in 10.0 mi SE 9.2 mph - N/A   Scattered Clouds
8:35 PM - - N/A% 30.08 in 10.0 mi SE 10.4 mph - N/A   Clear
8:55 PM - - N/A% 30.08 in 10.0 mi SE 9.2 mph - N/A   Clear
9:15 PM - - N/A% 30.08 in 10.0 mi SE 6.9 mph - N/A   Clear
9:35 PM - - N/A% 30.08 in 10.0 mi SE 8.1 mph - N/A   Clear
9:55 PM - - N/A% 30.08 in 10.0 mi SE 9.2 mph - N/A   Clear
10:15 PM - - N/A% 30.09 in 10.0 mi SE 9.2 mph - N/A   Clear
10:35 PM - - N/A% 30.09 in 10.0 mi SE 8.1 mph - N/A   Scattered Clouds
10:55 PM - - N/A% 30.09 in 10.0 mi SE 9.2 mph - N/A   Overcast
11:15 PM - - N/A% 30.08 in 10.0 mi ESE 8.1 mph - N/A   Overcast
11:35 PM - - N/A% 30.08 in 10.0 mi ESE 9.2 mph - N/A   Overcast
11:55 PM - - N/A% 30.08 in 10.0 mi ESE 6.9 mph - N/A   Overcast